• Processing (Info)

  • MPEC 2022-O109 : 2022 OK3

    The following Minor Planet Electronic Circular may be linked-to from your own Web pages, but must not otherwise be redistributed electronically.

    A form allowing access to any MPEC is at the bottom of this page.


    Read MPEC 2022-O108 Read MPEC 2022-O110


    M.P.E.C. 2022-O109                                Issued 2022 July 30, 11:26 UT
    
         The Minor Planet Electronic Circulars contain information on unusual
             minor planets and routine data on comets.  They are published
        on behalf of Division F of the International Astronomical Union by the
              Minor Planet Center, Smithsonian Astrophysical Observatory,
                              Cambridge, MA 02138, U.S.A.
    
                 Prepared using the Tamkin Foundation Computer Network
    
                                  MPC@CFA.HARVARD.EDU
                URL https://www.minorplanetcenter.net/    ISSN 1523-6714
    
                                    2022 OK3                                 
    
    
    Observations:
         K22O03K* C2022 07 28.28159715 51 05.015+02 36 32.55         20.80wUEO109F52
         K22O03K  C2022 07 28.30587315 51 15.129+02 36 53.97         20.93wUEO109F52
         K22O03K  C2022 07 28.31802215 51 20.171+02 37 04.65         20.90wUEO109F52
         K22O03K 2C2022 07 28.89427315 55 30.918+02 45 08.19         20.7 GVEO109J04
         K22O03K 2C2022 07 28.90042415 55 33.358+02 45 13.08         20.3 GVEO109J04
         K22O03K KC2022 07 28.94788715 55 52.190+02 45 28.01         20.4 GVEO109J95
         K22O03K KC2022 07 28.96615915 55 59.618+02 45 41.98         20.8 GVEO109J95
         K22O03K |C2022 07 28.97625 15 56 07.31 +02 47 26.1          20.7 GVEO109807
         K22O03K |C2022 07 28.97995 15 56 08.79 +02 47 29.4          21.0 GVEO109807
         K22O03K |C2022 07 28.98364 15 56 10.25 +02 47 32.2          20.6 GVEO109807
         K22O03K !C2022 07 29.22864 15 57 49.30 +02 49 30.5          20.9 RVEO109673
         K22O03K !C2022 07 29.23782 15 57 52.87 +02 49 36.9                VEO109673
         K22O03K KC2022 07 29.90889416 02 22.07 +02 57 55.0          20.4 GXEO109I93
         K22O03K KC2022 07 29.91809516 02 25.56 +02 58 00.6          20.4 GXEO109I93
         K22O03K KC2022 07 29.92707816 02 28.90 +02 58 06.3          20.6 GXEO109I93
         K22O03K HC2022 07 29.92874 16 02 29.22 +02 58 06.3          20.8 GVEO109204
         K22O03K KC2022 07 30.13425916 03 49.49 +03 00 40.2          21.2 VuEO109H21
         K22O03K KC2022 07 30.14013416 03 51.70 +03 00 43.9          20.8 VuEO109H21
    
    Observer details:
    204 Schiaparelli Observatory.  Observer L. Buzzi.  0.84-m f/3.5 reflector +
        CCD.
    673 Table Mountain Observatory, Wrightwood.  Observer J. Pittichova.  1.0-m
        f/15 reflector + CCD.
    807 Cerro Tololo Observatory, La Serena.  Observers T. Linder, R. Holmes, L.
        Horn.  1.00-m f/10.0 astrograph + CCD.
    F52 Pan-STARRS 2, Haleakala.  Observers J. Bulger, T. Lowe, A. Schultz, I.
        Smith.  Measurers K. Chambers, S. Chastel, T. de Boer, J. Fairlamb, H.
        Gao, M. Huber, C.-C. Lin, E. Magnier, Y. Ramanjooloo, R. Wainscoat, R.
        Weryk.  1.8-m Ritchey-Chretien + CCD.
    H21 Astronomical Research Observatory, Westfield.  Observer R. Holmes.
        Measurers T. Linder, R. Holmes, L. Horn.  0.81-m f/4.0 astrograph + CCD.
    I93 St Pardon de Conques.  Observer F. Losse.  0.40-m f/3.7 reflector + CCD.
    J04 ESA Optical Ground Station, Tenerife.  Observers D. Abreu, M. Micheli, D.
        Fohring, L. Conversi, D. Koschny.  Measurers M. Micheli, R. Kresken, M.
        Busch, A. Knofel, E. Schwab.  1.0-m f/4.4 reflector + CCD.
    J95 Great Shefford.  Observer P. Birtwhistle.  0.41-m f/6.3 Schmidt-Cassegrain
        + CCD.
    
    Orbital elements:
    2022 OK3                                                 Earth MOID = 0.0063 AU
    Epoch 2022 Aug. 9.0 TT = JDT 2459800.5                  Veres                   
    M 129.34633              (2000.0)            P               Q                  
    n   1.16533531     Peri.  230.15966     -0.91495667     -0.34783360             
    a   0.8943389      Node   288.60786     +0.40351127     -0.79576019             
    e   0.2921826      Incl.   12.46823     -0.00573974     -0.49575953             
    P   0.85           H   23.09          G   0.15           U   7                  
    Residuals in seconds of arc
    220728 F52  0.0   0.0     220728 J95 (1.4-  0.6-)   220729 I93  1.0-  0.9+
    220728 F52  0.1+  0.0     220728 807  0.2-  0.2-    220729 I93  0.1-  0.1-
    220728 F52  0.2-  0.0     220728 807  0.1+  0.1+    220729 I93  0.3-  0.8-
    220728 J04  0.2+  0.2+    220728 807  0.3+  0.1-    220729 204  0.1-  0.5-
    220728 J04  0.2+  0.1+    220729 673  0.2+  0.2+    220730 H21  0.3-  0.8+
    220728 J95  0.8-  0.1+    220729 673  0.0   0.6-    220730 H21  0.8+  0.4+
    
    Ephemeris:
    2022 OK3                 a,e,i = 0.89, 0.29, 12                  q = 0.6330
    Date    TT    R. A. (2000) Decl.     Delta      r    Elong.  Phase     V
    2022 06 30    08 21 19.3 -08 12 08   0.1098  0.9363    40.9   134.7    24.4
    ...
    2022 07 15    12 41 20.1 -04 38 04   0.06510 1.0062    79.1    97.3    20.7
    ...
    2022 07 23    15 01 04.9 +00 46 32   0.08963 1.0385   102.1    73.0    20.5
    ...
    2022 07 29    15 56 16.1 +02 47 05   0.1197  1.0604   109.0    64.9    20.9
    2022 07 30    16 02 59.1 +02 59 46   0.1252  1.0638   109.6    64.1    21.0
    2022 07 31    16 09 12.0 +03 10 53   0.1307  1.0672   110.1    63.3    21.1
    ...
    2022 08 06    16 38 42.4 +03 53 13   0.1652  1.0861   111.6    60.3    21.5
    ...
    2022 08 14    17 05 46.3 +04 09 57   0.2129  1.1079   111.2    58.5    22.1
    ...
    2022 08 29    17 41 33.0 +03 46 19   0.3038  1.1378   107.3    58.0    22.9
    
    M. P. C. Staff               (C) Copyright 2022 MPC           M.P.E.C. 2022-O109
    


    Read MPEC 2022-O108 Read MPEC 2022-O110


    MPEC number:

    Enter an MPEC number in one of the following forms:

    • 1997-B01 (the full form)
    • J97B01 (the packed version of the full form)
    • B01 (the abbreviated form)